{"data":{"norad_id":58735,"intl_designator":"2024-005H","name":"STARLINK-31157","alt_names":[],"object_type":"PAYLOAD","status":"ACTIVE","operator":null,"country":"US","launch_date":"2024-01-07","launch_site_code":"AFETR","launch_vehicle":null,"mission":null,"orbit_class":"UNKNOWN","rcs_meters":null,"size_class":null,"mass_kg":null,"dimensions":null,"purposes":["comms"],"wikipedia_slug":null,"has_3d_model":false,"image_url":null,"decayed_at":null,"tle_current":{"epoch":"2026-05-24T17:09:38.862432Z","epoch_age_seconds":109748,"freshness":"FRESH","line1":"1 58735U 24005H   26144.71503313  .00000331  00000+0  21533-4 0  9993","line2":"2 58735  43.0022 150.1535 0001264 273.9773  86.0935 15.27581389132075","mean_motion":15.27581389,"eccentricity":0.0001264,"inclination_deg":43.0022,"raan_deg":150.1535,"arg_perigee_deg":273.9773,"mean_anomaly_deg":86.0935,"bstar":2.1533e-5,"rev_number":13207,"period_min":94.266662998733,"perigee_km":482.17768348029,"apogee_km":483.91219027394,"semimajor_km":6861.1819368771,"source":"CELESTRAK","updated_at":"2026-05-25T13:38:18.720103Z"}}}